Home   Weather   Tulsa   Past weeks

Flag for USA Past Weather in Tulsa, Oklahoma, USA — Yesterday and Last 2 Weeks

Now
73 °F

Clear.


Feels Like: 69 °F
Forecast: 72 / 91 °F
Wind: 3 mph from Northwest

Location: Tulsa International Airport

Current Time: Aug 30, 2016 at 8:15:25 AM

Latest Report: Aug 30, 2016 at 7:53 AM


Visibility: 9 mi

Pressure: 30.09 "Hg

Humidity: 97%

Dew Point: 72 °F

Location of TulsaLocation

Past Weather in Tulsa — Graph

°F

Tulsa Temperature Yesterday

Maximum temperature yesterday: 89 °F (at 5:53 PM)
Minimum temperature yesterday: 73 °F (at 2:53 AM)
Average temperature yesterday: 80 °F

High & Low Weather Summary for the Past Weeks

 TemperatureHumidityPressure
High97 °F (Aug 24, 2:53 PM)100% (Aug 16, 6:53 AM)30.14 "Hg (Aug 16, 6:53 AM)
Low60 °F (Aug 21, 5:53 AM)29% (Aug 21, 4:53 PM)29.75 "Hg (Aug 19, 8:53 PM)
Average80 °F72%29.99 "Hg
* Reported Aug 15 6:53 AM — Aug 30 6:53 AM, Tulsa, Weather by CustomWeather, © 2016

Note: Actual official high and low records may vary slightly from our data, if they occured in-between our weather recording intervals... More about our weather records

Advertising

Tulsa Weather History for the Previous 24 Hours

Scroll right to see more
 ConditionsComfort  
Time TempWeatherWind HumidityBarometerVisibility
6:53 AM
Tue, Aug 30
71 °FPassing clouds.No wind100%30.08 "Hg10 mi
5:53 AM72 °FClear.No wind97%30.06 "Hg10 mi
4:53 AM72 °FClear.No wind97%30.05 "Hg10 mi
3:53 AM72 °FPassing clouds.3 mph97%30.06 "Hg10 mi
2:53 AM72 °FPassing clouds.3 mph93%30.07 "Hg10 mi
1:53 AM73 °FPassing clouds.No wind94%30.08 "Hg10 mi
12:53 AM74 °FMostly cloudy.5 mph91%30.08 "Hg10 mi
11:53 PM
Mon, Aug 29
74 °FMostly cloudy.5 mph94%30.09 "Hg10 mi
10:53 PM78 °FMostly cloudy.5 mph79%30.08 "Hg10 mi
9:53 PM78 °FPartly cloudy.5 mph82%30.08 "Hg10 mi
9:01 PM79 °FThunderstorms. Partly cloudy.3 mph79%30.08 "Hg10 mi
7:53 PM82 °FBroken clouds.6 mph77%30.02 "Hg10 mi
6:53 PM87 °FScattered clouds.8 mph67%30.00 "Hg10 mi
5:53 PM89 °FPartly sunny.7 mph63%30.01 "Hg10 mi
4:53 PM86 °FBroken clouds.6 mph75%30.02 "Hg10 mi
3:53 PM82 °FPartly sunny.7 mph85%30.04 "Hg10 mi
2:53 PM79 °FPartly sunny.No wind90%30.07 "Hg10 mi
1:53 PM78 °FThundershowers. Broken clouds.10 mph87%30.10 "Hg10 mi
1:01 PM85 °FThundershowers. Broken clouds.10 mph68%30.14 "Hg10 mi
11:53 AM86 °FThunderstorms. Broken clouds.9 mph67%30.11 "Hg10 mi
10:53 AM84 °FBroken clouds.13 mph77%30.12 "Hg10 mi
9:53 AM80 °FPartly sunny.7 mph87%30.11 "Hg9 mi
8:53 AM78 °FBroken clouds.3 mph90%30.10 "Hg9 mi
Weather by CustomWeather, © 2016

See weather overviewHow to use our weather pages